Location: Sungai Apap
(2.6167°N, 113.3833°E)
Time: 15:59:23
(UTC+00:00)

Cosmos 2221 - Pass Details

Date: 25 May 2024
Orbit: 581 x 604 km, 82.5° (Epoch: 12 June)

Event Time Altitude Azimuth Distance (km) Brightness Sun altitude
Exits shadow 12:31:16 28° 355° (N) 1,139 4.1 -28.5°
Drops below altitude 10° 12:33:20 10° 359° (N) 1,940 5.4 -28.9°
Sets 12:35:33 0° 1° (N) 2,841 6.3 -29.4°
